map of NIM home
NIM - Airport
Location
City:  Niamey, Niger
Name:Diori Hamani International Airport
ICAO:DRRN
IATA:NIM

Details
Type:Airport (Aerodrome, Airfield)
Use:Public/Civil, Military, International (customs port of entry)
Latitude:13°28'54"N (13.481547)
Longitude:2°11'01"E (2.183614)
Datum:WGS 1984
Elevation:732 ft (223 m)
Variation:1.25°W (WMM2015 magnetic declination)
0.09° annual change
Runways:2
Longest:9843 × 148 ft (3000 × 45 m), paved

Time
Time Zone:UTC+1
Local Time:

Weather
METAR:DRRN 241700Z 13010KT 100V160 7000 NSC 34/17 Q1007 NOSIG
TAF:DRRN 241700Z 2418/2524 20010KT 8000 NSC PROB40
TEMPO 2502/2506 VRB25G35KT 1200 BLDU TSRA SCT030 FEW040CB

Related Locations
Nearby:
Farthest:FUT: 12371 mi / 19910 km
Futuna Island (Maopoopo Īle Futuna) [Pointe Vele], WF

Find:

   beyond  
but within

Other Information
Maps:
NOTAMs:
Links:
Sources:

  
flag of Niger   

Sectional Chart

Flight Planning
at skyvector.com

Satellite Image

Google Maps Satellite view

 

Copyright © 2004-2017 Karl L. Swartz. All rights reserved.
The Great Circle Mapper name and logo are trademarks of the Great Circle Mapper.
All other trademarks mentioned herein belong to their respective owners.
Please see credits for attibutions and further copyright information.

  Follow gcmap on Facebook Follow gcmap on Twitter Follow gcmap on Google+ GCmap on LinkedIn

hCard Microformat

Geo Microformat